Time,TemperatureF,DewpointF,PressureIn,WindDirection,WindDirectionDegrees,WindSpeedMPH,WindSpeedGustMPH,Humidity,HourlyPrecipIn,Conditions,Clouds,dailyrainin,SoftwareType,DateUTC
2013-11-09 00:16:00,29.0,20.0,29.89,West,270,5.0,6.0,72,0.00,,,0.00,TxWx,2013-11-09 05:16:00,
2013-11-09 00:21:00,29.0,20.0,29.90,West,270,6.0,6.0,71,0.00,,,0.00,TxWx,2013-11-09 05:21:00,
2013-11-09 00:26:00,29.0,20.0,29.89,WSW,247,6.0,9.0,71,0.00,,,0.00,TxWx,2013-11-09 05:26:00,
2013-11-09 00:31:00,29.0,20.0,29.89,WNW,292,6.0,8.0,71,0.00,,,0.00,TxWx,2013-11-09 05:31:00,
2013-11-09 00:37:00,29.0,20.0,29.90,SW,225,3.0,4.0,71,0.00,,,0.00,TxWx,2013-11-09 05:37:00,
2013-11-09 00:42:00,29.0,20.0,29.89,SSW,202,3.0,4.0,71,0.00,,,0.00,TxWx,2013-11-09 05:42:00,
2013-11-09 00:46:00,29.0,20.0,29.90,WNW,292,4.0,5.0,71,0.00,,,0.00,TxWx,2013-11-09 05:46:00,
2013-11-09 00:51:00,29.0,20.0,29.90,WNW,292,5.0,10.0,71,0.00,,,0.00,TxWx,2013-11-09 05:51:00,
2013-11-09 00:57:00,29.0,20.0,29.90,West,270,1.0,2.0,71,0.00,,,0.00,TxWx,2013-11-09 05:57:00,
2013-11-09 01:02:00,29.0,20.0,29.90,North,0,3.0,7.0,71,0.00,,,0.00,TxWx,2013-11-09 06:02:00,
2013-11-09 01:07:00,29.0,19.0,29.90,South,180,5.0,6.0,70,0.00,,,0.00,TxWx,2013-11-09 06:07:00,
2013-11-09 01:12:00,29.0,20.0,29.90,NNE,22,3.0,3.0,71,0.00,,,0.00,TxWx,2013-11-09 06:12:00,
2013-11-09 01:17:00,29.0,20.0,29.90,NW,315,4.0,5.0,71,0.00,,,0.00,TxWx,2013-11-09 06:17:00,
2013-11-09 01:22:00,29.0,20.0,29.90,WSW,247,3.0,5.0,71,0.00,,,0.00,TxWx,2013-11-09 06:22:00,
2013-11-09 01:27:00,29.0,20.0,29.90,WNW,292,5.0,5.0,71,0.00,,,0.00,TxWx,2013-11-09 06:27:00,
2013-11-09 01:32:00,29.0,20.0,29.90,North,0,5.0,5.0,71,0.00,,,0.00,TxWx,2013-11-09 06:32:00,
2013-11-09 01:37:00,29.0,20.0,29.90,WNW,292,5.0,6.0,71,0.00,,,0.00,TxWx,2013-11-09 06:37:00,
2013-11-09 01:42:00,28.0,19.0,29.90,WNW,292,5.0,8.0,71,0.00,,,0.00,TxWx,2013-11-09 06:42:00,
2013-11-09 01:47:00,28.0,19.0,29.90,WNW,292,1.0,3.0,71,0.00,,,0.00,TxWx,2013-11-09 06:47:00,
2013-11-09 01:52:00,28.0,19.0,29.90,NW,315,4.0,5.0,72,0.00,,,0.00,TxWx,2013-11-09 06:52:00,
2013-11-09 01:57:00,28.0,19.0,29.90,WNW,292,6.0,6.0,72,0.00,,,0.00,TxWx,2013-11-09 06:57:00,
2013-11-09 02:02:00,28.0,19.0,29.90,NW,315,1.0,6.0,72,0.00,,,0.00,TxWx,2013-11-09 07:02:00,
2013-11-09 02:07:00,28.0,19.0,29.90,WNW,292,4.0,6.0,73,0.00,,,0.00,TxWx,2013-11-09 07:07:00,
2013-11-09 02:12:00,28.0,19.0,29.91,West,270,9.0,10.0,73,0.00,,,0.00,TxWx,2013-11-09 07:12:00,
2013-11-09 02:17:00,28.0,19.0,29.91,WNW,292,5.0,5.0,73,0.00,,,0.00,TxWx,2013-11-09 07:17:00,
2013-11-09 02:22:00,28.0,20.0,29.91,West,270,5.0,5.0,74,0.00,,,0.00,TxWx,2013-11-09 07:22:00,
2013-11-09 02:27:00,28.0,20.0,29.91,West,270,5.0,6.0,74,0.00,,,0.00,TxWx,2013-11-09 07:27:00,
2013-11-09 02:32:00,28.0,20.0,29.91,WNW,292,6.0,8.0,74,0.00,,,0.00,TxWx,2013-11-09 07:32:00,
2013-11-09 02:37:00,27.0,19.0,29.91,West,270,3.0,3.0,75,0.00,,,0.00,TxWx,2013-11-09 07:37:00,
2013-11-09 02:42:00,27.0,19.0,29.91,WSW,247,6.0,6.0,75,0.00,,,0.00,TxWx,2013-11-09 07:42:00,
2013-11-09 02:47:00,27.0,19.0,29.91,NW,315,5.0,5.0,76,0.00,,,0.00,TxWx,2013-11-09 07:47:00,
2013-11-09 02:52:00,27.0,19.0,29.91,West,270,4.0,5.0,76,0.00,,,0.00,TxWx,2013-11-09 07:52:00,
2013-11-09 02:57:00,27.0,19.0,29.91,West,270,5.0,6.0,76,0.00,,,0.00,TxWx,2013-11-09 07:57:00,
2013-11-09 03:02:00,27.0,20.0,29.92,West,270,4.0,6.0,77,0.00,,,0.00,TxWx,2013-11-09 08:02:00,
2013-11-09 03:07:00,27.0,20.0,29.91,WNW,292,3.0,3.0,77,0.00,,,0.00,TxWx,2013-11-09 08:07:00,
2013-11-09 03:12:00,27.0,20.0,29.92,NE,45,3.0,6.0,77,0.00,,,0.00,TxWx,2013-11-09 08:12:00,
2013-11-09 03:18:00,27.0,20.0,29.92,WSW,247,7.0,8.0,78,0.00,,,0.00,TxWx,2013-11-09 08:18:00,
2013-11-09 03:23:00,26.0,19.0,29.92,West,270,4.0,5.0,78,0.00,,,0.00,TxWx,2013-11-09 08:23:00,
2013-11-09 03:28:00,26.0,19.0,29.92,West,270,5.0,6.0,78,0.00,,,0.00,TxWx,2013-11-09 08:28:00,
2013-11-09 03:33:00,26.0,19.0,29.92,WNW,292,3.0,3.0,78,0.00,,,0.00,TxWx,2013-11-09 08:33:00,
2013-11-09 03:38:00,26.0,19.0,29.92,NW,315,2.0,3.0,78,0.00,,,0.00,TxWx,2013-11-09 08:38:00,
2013-11-09 03:43:00,26.0,19.0,29.92,WNW,292,4.0,5.0,79,0.00,,,0.00,TxWx,2013-11-09 08:43:00,
2013-11-09 03:47:00,26.0,19.0,29.92,WNW,292,3.0,3.0,79,0.00,,,0.00,TxWx,2013-11-09 08:47:00,
2013-11-09 03:53:00,26.0,19.0,29.92,WNW,292,3.0,5.0,79,0.00,,,0.00,TxWx,2013-11-09 08:53:00,
2013-11-09 03:58:00,26.0,19.0,29.92,SW,225,1.0,4.0,79,0.00,,,0.00,TxWx,2013-11-09 08:58:00,
2013-11-09 04:02:00,26.0,19.0,29.93,WNW,292,3.0,6.0,79,0.00,,,0.00,TxWx,2013-11-09 09:02:00,
2013-11-09 04:07:00,26.0,19.0,29.93,SW,225,3.0,4.0,79,0.00,,,0.00,TxWx,2013-11-09 09:07:00,
2013-11-09 04:12:00,26.0,20.0,29.93,WNW,292,3.0,5.0,80,0.00,,,0.00,TxWx,2013-11-09 09:12:00,
2013-11-09 04:18:00,26.0,20.0,29.93,SSW,202,1.0,2.0,80,0.00,,,0.00,TxWx,2013-11-09 09:18:00,
2013-11-09 04:23:00,25.0,19.0,29.93,SSW,202,1.0,1.0,80,0.00,,,0.00,TxWx,2013-11-09 09:23:00,
2013-11-09 04:28:00,25.0,19.0,29.93,SSW,202,0.0,1.0,80,0.00,,,0.00,TxWx,2013-11-09 09:28:00,
2013-11-09 04:33:00,25.0,19.0,29.94,South,180,1.0,2.0,81,0.00,,,0.00,TxWx,2013-11-09 09:33:00,
2013-11-09 04:38:00,25.0,19.0,29.94,SSW,202,0.0,1.0,81,0.00,,,0.00,TxWx,2013-11-09 09:38:00,
2013-11-09 04:43:00,25.0,19.0,29.93,SSW,202,1.0,1.0,82,0.00,,,0.00,TxWx,2013-11-09 09:43:00,
2013-11-09 04:48:00,24.0,18.0,29.94,South,180,3.0,3.0,82,0.00,,,0.00,TxWx,2013-11-09 09:48:00,
2013-11-09 04:53:00,24.0,18.0,29.94,West,270,2.0,2.0,83,0.00,,,0.00,TxWx,2013-11-09 09:53:00,
2013-11-09 04:58:00,24.0,19.0,29.94,SSW,202,1.0,1.0,84,0.00,,,0.00,TxWx,2013-11-09 09:58:00,
2013-11-09 05:03:00,24.0,19.0,29.94,SSW,202,2.0,3.0,84,0.00,,,0.00,TxWx,2013-11-09 10:03:00,
2013-11-09 05:08:00,24.0,19.0,29.94,SSE,157,1.0,1.0,84,0.00,,,0.00,TxWx,2013-11-09 10:08:00,
2013-11-09 05:13:00,24.0,19.0,29.93,SSW,202,3.0,3.0,85,0.00,,,0.00,TxWx,2013-11-09 10:13:00,
2013-11-09 05:18:00,24.0,19.0,29.93,WSW,247,1.0,1.0,85,0.00,,,0.00,TxWx,2013-11-09 10:18:00,
2013-11-09 05:24:00,24.0,19.0,29.94,South,180,1.0,1.0,85,0.00,,,0.00,TxWx,2013-11-09 10:24:00,
2013-11-09 05:29:00,24.0,19.0,29.94,SSW,202,2.0,2.0,86,0.00,,,0.00,TxWx,2013-11-09 10:29:00,
2013-11-09 05:34:00,24.0,19.0,29.94,WSW,247,1.0,1.0,86,0.00,,,0.00,TxWx,2013-11-09 10:34:00,
2013-11-09 05:39:00,23.0,18.0,29.94,SW,225,3.0,3.0,86,0.00,,,0.00,TxWx,2013-11-09 10:39:00,
2013-11-09 05:44:00,23.0,18.0,29.94,SW,225,2.0,3.0,86,0.00,,,0.00,TxWx,2013-11-09 10:44:00,
2013-11-09 05:49:00,23.0,19.0,29.94,SSW,202,1.0,2.0,87,0.00,,,0.00,TxWx,2013-11-09 10:49:00,
2013-11-09 05:54:00,23.0,19.0,29.94,WSW,247,3.0,4.0,87,0.00,,,0.00,TxWx,2013-11-09 10:54:00,
2013-11-09 05:59:00,23.0,19.0,29.94,SW,225,2.0,2.0,88,0.00,,,0.00,TxWx,2013-11-09 10:59:00,
2013-11-09 06:04:00,23.0,19.0,29.94,South,180,1.0,2.0,88,0.00,,,0.00,TxWx,2013-11-09 11:04:00,
2013-11-09 06:09:00,23.0,19.0,29.94,West,270,3.0,3.0,88,0.00,,,0.00,TxWx,2013-11-09 11:09:00,
2013-11-09 06:14:00,23.0,19.0,29.94,SSW,202,1.0,2.0,88,0.00,,,0.00,TxWx,2013-11-09 11:14:00,
2013-11-09 06:19:00,23.0,19.0,29.95,West,270,6.0,6.0,89,0.00,,,0.00,TxWx,2013-11-09 11:19:00,
2013-11-09 06:24:00,23.0,19.0,29.95,SSW,202,1.0,2.0,89,0.00,,,0.00,TxWx,2013-11-09 11:24:00,
2013-11-09 06:29:00,23.0,19.0,29.95,SW,225,3.0,3.0,89,0.00,,,0.00,TxWx,2013-11-09 11:29:00,
2013-11-09 06:34:00,23.0,19.0,29.95,WNW,292,2.0,3.0,89,0.00,,,0.00,TxWx,2013-11-09 11:34:00,
2013-11-09 06:39:00,24.0,20.0,29.95,West,270,3.0,3.0,90,0.00,,,0.00,TxWx,2013-11-09 11:39:00,
2013-11-09 06:44:00,23.0,19.0,29.95,WSW,247,3.0,3.0,90,0.00,,,0.00,TxWx,2013-11-09 11:44:00,
2013-11-09 06:49:00,23.0,19.0,29.94,SW,225,1.0,1.0,90,0.00,,,0.00,TxWx,2013-11-09 11:49:00,
2013-11-09 06:54:00,24.0,20.0,29.95,NW,315,3.0,4.0,90,0.00,,,0.00,TxWx,2013-11-09 11:54:00,
2013-11-09 06:59:00,24.0,20.0,29.95,SW,225,2.0,4.0,90,0.00,,,0.00,TxWx,2013-11-09 11:59:00,
2013-11-09 07:04:00,24.0,20.0,29.95,NW,315,3.0,5.0,90,0.00,,,0.00,TxWx,2013-11-09 12:04:00,
2013-11-09 07:09:00,24.0,20.0,29.96,West,270,3.0,3.0,90,0.00,,,0.00,TxWx,2013-11-09 12:09:00,
2013-11-09 07:14:00,24.0,20.0,29.96,WNW,292,3.0,3.0,90,0.00,,,0.00,TxWx,2013-11-09 12:14:00,
2013-11-09 07:19:00,24.0,20.0,29.96,WNW,292,3.0,3.0,90,0.00,,,0.00,TxWx,2013-11-09 12:19:00,
2013-11-09 07:24:00,24.0,20.0,29.96,West,270,3.0,5.0,90,0.00,,,0.00,TxWx,2013-11-09 12:24:00,
2013-11-09 07:29:00,25.0,21.0,29.96,West,270,3.0,3.0,90,0.00,,,0.00,TxWx,2013-11-09 12:29:00,
2013-11-09 07:34:00,25.0,21.0,29.96,NW,315,1.0,3.0,90,0.00,,,0.00,TxWx,2013-11-09 12:34:00,
2013-11-09 07:39:00,25.0,21.0,29.96,NW,315,3.0,4.0,90,0.00,,,0.00,TxWx,2013-11-09 12:39:00,
2013-11-09 07:44:00,25.0,21.0,29.96,West,270,5.0,6.0,90,0.00,,,0.00,TxWx,2013-11-09 12:44:00,
2013-11-09 07:49:00,26.0,22.0,29.97,West,270,3.0,5.0,89,0.00,,,0.00,TxWx,2013-11-09 12:49:00,
2013-11-09 07:54:00,26.0,22.0,29.97,West,270,1.0,1.0,89,0.00,,,0.00,TxWx,2013-11-09 12:54:00,
2013-11-09 08:00:00,27.0,23.0,29.96,West,270,2.0,2.0,89,0.00,,,0.00,TxWx,2013-11-09 13:00:00,
2013-11-09 08:05:00,27.0,23.0,29.96,NW,315,3.0,4.0,88,0.00,,,0.00,TxWx,2013-11-09 13:05:00,
2013-11-09 08:09:00,27.0,23.0,29.96,NW,315,3.0,3.0,87,0.00,,,0.00,TxWx,2013-11-09 13:09:00,
2013-11-09 08:14:00,27.0,22.0,29.96,WSW,247,2.0,3.0,86,0.00,,,0.00,TxWx,2013-11-09 13:14:00,
2013-11-09 08:19:00,28.0,23.0,29.96,SSW,202,1.0,1.0,85,0.00,,,0.00,TxWx,2013-11-09 13:19:00,
2013-11-09 08:24:00,28.0,23.0,29.96,WSW,247,5.0,6.0,84,0.00,,,0.00,TxWx,2013-11-09 13:24:00,
2013-11-09 08:29:00,28.0,23.0,29.96,NNW,337,3.0,3.0,83,0.00,,,0.00,TxWx,2013-11-09 13:29:00,
2013-11-09 08:35:00,28.0,22.0,29.96,West,270,5.0,6.0,83,0.00,,,0.00,TxWx,2013-11-09 13:35:00,
2013-11-09 08:40:00,28.0,22.0,29.96,West,270,5.0,5.0,82,0.00,,,0.00,TxWx,2013-11-09 13:40:00,
2013-11-09 08:45:00,28.0,22.0,29.96,SW,225,3.0,4.0,82,0.00,,,0.00,TxWx,2013-11-09 13:45:00,
2013-11-09 08:50:00,27.0,21.0,29.96,West,270,3.0,4.0,82,0.00,,,0.00,TxWx,2013-11-09 13:50:00,
2013-11-09 08:55:00,28.0,22.0,29.95,WSW,247,2.0,3.0,82,0.00,,,0.00,TxWx,2013-11-09 13:55:00,
2013-11-09 09:00:00,27.0,21.0,29.95,WSW,247,4.0,5.0,82,0.00,,,0.00,TxWx,2013-11-09 14:00:00,
2013-11-09 09:05:00,28.0,22.0,29.95,SSW,202,2.0,5.0,82,0.00,,,0.00,TxWx,2013-11-09 14:05:00,
2013-11-09 09:10:00,28.0,22.0,29.95,West,270,5.0,5.0,82,0.00,,,0.00,TxWx,2013-11-09 14:10:00,
2013-11-09 09:15:00,28.0,22.0,29.95,WSW,247,2.0,3.0,82,0.00,,,0.00,TxWx,2013-11-09 14:15:00,
2013-11-09 09:20:00,28.0,22.0,29.95,South,180,1.0,2.0,82,0.00,,,0.00,TxWx,2013-11-09 14:20:00,
2013-11-09 09:25:00,28.0,22.0,29.95,SW,225,3.0,3.0,82,0.00,,,0.00,TxWx,2013-11-09 14:25:00,
2013-11-09 09:30:00,28.0,22.0,29.96,WNW,292,4.0,6.0,81,0.00,,,0.00,TxWx,2013-11-09 14:30:00,
2013-11-09 09:35:00,29.0,23.0,29.96,WNW,292,3.0,3.0,81,0.00,,,0.00,TxWx,2013-11-09 14:35:00,
2013-11-09 09:40:00,29.0,23.0,29.95,WNW,292,3.0,3.0,81,0.00,,,0.00,TxWx,2013-11-09 14:40:00,
2013-11-09 09:45:00,29.0,23.0,29.95,West,270,4.0,6.0,80,0.00,,,0.00,TxWx,2013-11-09 14:45:00,
2013-11-09 09:50:00,29.0,22.0,29.95,WSW,247,2.0,2.0,80,0.00,,,0.00,TxWx,2013-11-09 14:50:00,
2013-11-09 09:55:00,29.0,22.0,29.95,West,270,2.0,2.0,80,0.00,,,0.00,TxWx,2013-11-09 14:55:00,
2013-11-09 10:00:00,29.0,22.0,29.95,WNW,292,4.0,5.0,79,0.00,,,0.00,TxWx,2013-11-09 15:00:00,
2013-11-09 10:05:00,29.0,22.0,29.95,West,270,2.0,3.0,78,0.00,,,0.00,TxWx,2013-11-09 15:05:00,
2013-11-09 10:06:00,31.0,27.0,29.78,ESE,112,3.0,5.0,89,0.00,,,0.00,TxWx,2013-11-09 15:06:00,
2013-11-09 10:07:00,31.0,27.0,29.78,SSE,157,3.0,5.0,89,0.00,,,0.00,TxWx,2013-11-09 15:07:00,
2013-11-09 10:08:00,31.0,27.0,29.78,SSE,157,2.0,4.0,89,0.00,,,0.00,TxWx,2013-11-09 15:08:00,
2013-11-09 10:10:00,30.0,23.0,29.95,WNW,292,3.0,3.0,78,0.00,,,0.00,TxWx,2013-11-09 15:10:00,
2013-11-09 10:11:00,31.0,27.0,29.78,SE,135,3.0,4.0,89,0.00,,,0.00,TxWx,2013-11-09 15:11:00,
2013-11-09 10:15:00,30.0,23.0,29.94,West,270,5.0,5.0,78,0.00,,,0.00,TxWx,2013-11-09 15:15:00,
2013-11-09 10:16:00,31.0,27.0,29.78,SSE,157,3.0,3.0,90,0.00,,,0.00,TxWx,2013-11-09 15:16:00,
2013-11-09 10:17:00,31.0,27.0,29.78,SSE,157,2.0,3.0,90,0.00,,,0.00,TxWx,2013-11-09 15:17:00,
2013-11-09 10:18:00,31.0,27.0,29.78,SSE,157,1.0,2.0,90,0.00,,,0.00,TxWx,2013-11-09 15:18:00,
2013-11-09 10:20:00,30.0,23.0,29.94,SW,225,3.0,3.0,77,0.00,,,0.00,TxWx,2013-11-09 15:20:00,
2013-11-09 10:21:00,31.0,27.0,29.78,SE,135,3.0,3.0,90,0.00,,,0.00,TxWx,2013-11-09 15:21:00,
2013-11-09 10:22:00,31.0,28.0,29.78,SSE,157,2.0,2.0,91,0.00,,,0.00,TxWx,2013-11-09 15:22:00,
2013-11-09 10:24:00,31.0,28.0,29.78,SE,135,2.0,3.0,91,0.00,,,0.00,TxWx,2013-11-09 15:24:00,
2013-11-09 10:25:00,30.0,23.0,29.94,West,270,2.0,3.0,77,0.00,,,0.00,TxWx,2013-11-09 15:25:00,
2013-11-09 10:26:00,30.0,27.0,29.78,SE,135,2.0,3.0,91,0.00,,,0.00,TxWx,2013-11-09 15:26:00,
2013-11-09 10:27:00,30.0,27.0,29.78,SSE,157,3.0,3.0,91,0.00,,,0.00,TxWx,2013-11-09 15:27:00,
2013-11-09 10:28:00,30.0,27.0,29.78,SSE,157,2.0,3.0,92,0.00,,,0.00,TxWx,2013-11-09 15:28:00,
2013-11-09 10:29:00,30.0,27.0,29.78,SSE,157,1.0,2.0,92,0.00,,,0.00,TxWx,2013-11-09 15:29:00,
2013-11-09 10:30:00,30.0,23.0,29.94,WSW,247,3.0,4.0,77,0.00,,,0.00,TxWx,2013-11-09 15:30:00,
2013-11-09 10:32:00,30.0,27.0,29.78,ESE,112,3.0,5.0,92,0.00,,,0.00,TxWx,2013-11-09 15:32:00,
2013-11-09 10:34:00,30.0,27.0,29.77,East,90,3.0,4.0,92,0.00,,,0.00,TxWx,2013-11-09 15:34:00,
2013-11-09 10:35:00,30.0,23.0,29.93,WSW,247,1.0,2.0,77,0.00,,,0.00,TxWx,2013-11-09 15:35:00,
2013-11-09 10:36:00,30.0,27.0,29.77,SE,135,3.0,3.0,93,0.00,,,0.00,TxWx,2013-11-09 15:36:00,
2013-11-09 10:37:00,30.0,27.0,29.77,SSE,157,1.0,2.0,93,0.00,,,0.00,TxWx,2013-11-09 15:37:00,
2013-11-09 10:38:00,30.0,27.0,29.77,ESE,112,3.0,3.0,93,0.00,,,0.00,TxWx,2013-11-09 15:38:00,
2013-11-09 10:39:00,30.0,27.0,29.77,SE,135,1.0,2.0,93,0.00,,,0.00,TxWx,2013-11-09 15:39:00,
2013-11-09 10:40:00,30.0,22.0,29.94,South,180,3.0,5.0,76,0.00,,,0.00,TxWx,2013-11-09 15:40:00,
2013-11-09 10:45:00,30.0,22.0,29.93,WSW,247,3.0,5.0,76,0.00,,,0.00,TxWx,2013-11-09 15:45:00,
2013-11-09 10:50:00,31.0,23.0,29.94,WNW,292,4.0,5.0,76,0.00,,,0.00,TxWx,2013-11-09 15:50:00,
2013-11-09 10:56:00,31.0,23.0,29.93,SSW,202,2.0,3.0,75,0.00,,,0.00,TxWx,2013-11-09 15:56:00,
2013-11-09 11:01:00,31.0,23.0,29.93,WSW,247,3.0,3.0,75,0.00,,,0.00,TxWx,2013-11-09 16:01:00,
2013-11-09 11:06:00,31.0,23.0,29.93,North,0,3.0,4.0,75,0.00,,,0.00,TxWx,2013-11-09 16:06:00,
2013-11-09 11:11:00,31.0,23.0,29.93,WNW,292,3.0,5.0,75,0.00,,,0.00,TxWx,2013-11-09 16:11:00,
2013-11-09 11:16:00,31.0,23.0,29.93,West,270,3.0,5.0,74,0.00,,,0.00,TxWx,2013-11-09 16:16:00,
2013-11-09 11:21:00,31.0,23.0,29.92,West,270,3.0,3.0,74,0.00,,,0.00,TxWx,2013-11-09 16:21:00,
2013-11-09 11:26:00,31.0,23.0,29.92,NW,315,2.0,4.0,75,0.00,,,0.00,TxWx,2013-11-09 16:26:00,
2013-11-09 11:31:00,32.0,24.0,29.91,South,180,1.0,1.0,75,0.00,,,0.00,TxWx,2013-11-09 16:31:00,
2013-11-09 11:36:00,32.0,24.0,29.91,WNW,292,5.0,5.0,75,0.00,,,0.00,TxWx,2013-11-09 16:36:00,
2013-11-09 11:41:00,32.0,23.0,29.90,SSW,202,1.0,1.0,74,0.00,,,0.00,TxWx,2013-11-09 16:41:00,
2013-11-09 11:46:00,32.0,23.0,29.90,West,270,3.0,3.0,73,0.00,,,0.00,TxWx,2013-11-09 16:46:00,
2013-11-09 11:51:00,32.0,23.0,29.90,WNW,292,3.0,4.0,73,0.00,,,0.00,TxWx,2013-11-09 16:51:00,
2013-11-09 11:56:00,32.0,23.0,29.90,WNW,292,3.0,3.0,73,0.00,,,0.00,TxWx,2013-11-09 16:56:00,
2013-11-09 12:01:00,32.0,23.0,29.89,WSW,247,1.0,2.0,73,0.00,,,0.00,TxWx,2013-11-09 17:01:00,
2013-11-09 12:06:00,32.0,23.0,29.89,WNW,292,4.0,4.0,73,0.00,,,0.00,TxWx,2013-11-09 17:06:00,
2013-11-09 12:11:00,32.0,23.0,29.89,NNW,337,2.0,3.0,73,0.00,,,0.00,TxWx,2013-11-09 17:11:00,
2013-11-09 12:16:00,32.0,23.0,29.89,SSW,202,3.0,3.0,72,0.00,,,0.00,TxWx,2013-11-09 17:16:00,
2013-11-09 12:21:00,33.0,24.0,29.88,West,270,4.0,4.0,73,0.00,,,0.00,TxWx,2013-11-09 17:21:00,
2013-11-09 12:26:00,33.0,24.0,29.88,NNW,337,3.0,3.0,72,0.00,,,0.00,TxWx,2013-11-09 17:26:00,
2013-11-09 12:31:00,33.0,24.0,29.88,NW,315,1.0,1.0,72,0.00,,,0.00,TxWx,2013-11-09 17:31:00,
2013-11-09 12:36:00,33.0,24.0,29.88,NW,315,5.0,6.0,72,0.00,,,0.00,TxWx,2013-11-09 17:36:00,
2013-11-09 12:41:00,33.0,24.0,29.88,NW,315,3.0,3.0,72,0.00,,,0.00,TxWx,2013-11-09 17:41:00,
2013-11-09 12:46:00,33.0,24.0,29.87,NNW,337,3.0,3.0,71,0.00,,,0.00,TxWx,2013-11-09 17:46:00,
2013-11-09 12:51:00,33.0,24.0,29.87,West,270,2.0,3.0,71,0.00,,,0.00,TxWx,2013-11-09 17:51:00,
2013-11-09 12:56:00,34.0,25.0,29.87,SE,135,1.0,2.0,71,0.00,,,0.00,TxWx,2013-11-09 17:56:00,
2013-11-09 13:01:00,34.0,24.0,29.86,ESE,112,3.0,3.0,70,0.00,,,0.00,TxWx,2013-11-09 18:01:00,
2013-11-09 13:06:00,35.0,25.0,29.86,SE,135,1.0,2.0,70,0.00,,,0.00,TxWx,2013-11-09 18:06:00,
2013-11-09 13:11:00,35.0,25.0,29.86,South,180,1.0,2.0,70,0.00,,,0.00,TxWx,2013-11-09 18:11:00,
2013-11-09 13:16:00,35.0,24.0,29.86,West,270,3.0,3.0,68,0.00,,,0.00,TxWx,2013-11-09 18:16:00,
2013-11-09 13:21:00,35.0,24.0,29.85,SSW,202,0.0,1.0,67,0.00,,,0.00,TxWx,2013-11-09 18:21:00,
2013-11-09 13:26:00,36.0,25.0,29.85,SSE,157,3.0,3.0,67,0.00,,,0.00,TxWx,2013-11-09 18:26:00,
2013-11-09 13:31:00,35.0,24.0,29.85,South,180,5.0,5.0,66,0.00,,,0.00,TxWx,2013-11-09 18:31:00,
2013-11-09 13:36:00,35.0,24.0,29.85,South,180,3.0,4.0,66,0.00,,,0.00,TxWx,2013-11-09 18:36:00,
2013-11-09 13:41:00,34.0,23.0,29.84,SW,225,2.0,3.0,67,0.00,,,0.00,TxWx,2013-11-09 18:41:00,
2013-11-09 13:46:00,35.0,24.0,29.84,WSW,247,3.0,3.0,67,0.00,,,0.00,TxWx,2013-11-09 18:46:00,
2013-11-09 13:51:00,35.0,24.0,29.83,South,180,1.0,1.0,67,0.00,,,0.00,TxWx,2013-11-09 18:51:00,
2013-11-09 13:56:00,35.0,24.0,29.83,WSW,247,3.0,3.0,67,0.00,,,0.00,TxWx,2013-11-09 18:56:00,
2013-11-09 14:00:00,30.0,30.0,29.66,ENE,67,3.0,3.0,100,0.00,,,0.00,TxWx,2013-11-09 19:00:00,
2013-11-09 14:01:00,35.0,24.0,29.82,SE,135,1.0,3.0,67,0.00,,,0.00,TxWx,2013-11-09 19:01:00,
2013-11-09 14:02:00,30.0,30.0,29.66,ESE,112,2.0,3.0,100,0.00,,,0.00,TxWx,2013-11-09 19:02:00,
2013-11-09 14:03:00,30.0,30.0,29.66,SE,135,1.0,3.0,100,0.00,,,0.00,TxWx,2013-11-09 19:03:00,
2013-11-09 14:04:00,30.0,30.0,29.66,East,90,1.0,2.0,100,0.00,,,0.00,TxWx,2013-11-09 19:04:00,
2013-11-09 14:05:00,30.0,30.0,29.66,ENE,67,1.0,1.0,100,0.00,,,0.00,TxWx,2013-11-09 19:05:00,
2013-11-09 14:06:00,35.0,24.0,29.83,SE,135,4.0,4.0,67,0.00,,,0.00,TxWx,2013-11-09 19:06:00,
2013-11-09 14:07:00,30.0,30.0,29.66,East,90,3.0,3.0,100,0.00,,,0.00,TxWx,2013-11-09 19:07:00,
2013-11-09 14:08:00,30.0,30.0,29.66,SE,135,3.0,3.0,100,0.00,,,0.00,TxWx,2013-11-09 19:08:00,
2013-11-09 14:09:00,30.0,30.0,29.66,ESE,112,3.0,3.0,100,0.00,,,0.00,TxWx,2013-11-09 19:09:00,
2013-11-09 14:10:00,30.0,30.0,29.66,ESE,112,3.0,4.0,100,0.00,,,0.00,TxWx,2013-11-09 19:10:00,
2013-11-09 14:11:00,35.0,24.0,29.83,WSW,247,1.0,1.0,67,0.00,,,0.00,TxWx,2013-11-09 19:11:00,
2013-11-09 14:12:00,30.0,30.0,29.66,East,90,3.0,4.0,100,0.00,,,0.00,TxWx,2013-11-09 19:12:00,
2013-11-09 14:13:00,30.0,30.0,29.66,East,90,2.0,3.0,100,0.00,,,0.00,TxWx,2013-11-09 19:13:00,
2013-11-09 14:14:00,30.0,30.0,29.66,ESE,112,1.0,2.0,100,0.00,,,0.00,TxWx,2013-11-09 19:14:00,
2013-11-09 14:15:00,30.0,30.0,29.66,SE,135,1.0,2.0,100,0.00,,,0.00,TxWx,2013-11-09 19:15:00,
2013-11-09 14:16:00,35.0,24.0,29.82,SSW,202,4.0,4.0,67,0.00,,,0.00,TxWx,2013-11-09 19:16:00,
2013-11-09 14:17:00,30.0,30.0,29.66,SE,135,4.0,5.0,100,0.00,,,0.00,TxWx,2013-11-09 19:17:00,
2013-11-09 14:18:00,30.0,30.0,29.66,SE,135,3.0,3.0,100,0.00,,,0.00,TxWx,2013-11-09 19:18:00,
2013-11-09 14:19:00,30.0,30.0,29.66,SSE,157,1.0,2.0,100,0.00,,,0.00,TxWx,2013-11-09 19:19:00,
2013-11-09 14:20:00,30.0,30.0,29.66,SE,135,3.0,3.0,100,0.00,,,0.00,TxWx,2013-11-09 19:20:00,
2013-11-09 14:21:00,35.0,24.0,29.82,WSW,247,6.0,6.0,68,0.00,,,0.00,TxWx,2013-11-09 19:21:00,
2013-11-09 14:22:00,30.0,30.0,29.66,ENE,67,2.0,2.0,100,0.00,,,0.00,TxWx,2013-11-09 19:22:00,
2013-11-09 14:23:00,30.0,30.0,29.66,ESE,112,3.0,3.0,100,0.00,,,0.00,TxWx,2013-11-09 19:23:00,
2013-11-09 14:24:00,30.0,30.0,29.65,East,90,3.0,3.0,100,0.00,,,0.00,TxWx,2013-11-09 19:24:00,
2013-11-09 14:25:00,30.0,30.0,29.65,ESE,112,3.0,3.0,100,0.00,,,0.00,TxWx,2013-11-09 19:25:00,
2013-11-09 14:26:00,35.0,25.0,29.82,WNW,292,3.0,3.0,69,0.00,,,0.00,TxWx,2013-11-09 19:26:00,
2013-11-09 14:27:00,30.0,30.0,29.65,SE,135,3.0,5.0,100,0.00,,,0.00,TxWx,2013-11-09 19:27:00,
2013-11-09 14:28:00,30.0,30.0,29.65,SE,135,1.0,2.0,100,0.00,,,0.00,TxWx,2013-11-09 19:28:00,
2013-11-09 14:29:00,30.0,30.0,29.65,ESE,112,1.0,1.0,100,0.00,,,0.00,TxWx,2013-11-09 19:29:00,
2013-11-09 14:31:00,35.0,25.0,29.82,SW,225,1.0,1.0,69,0.00,,,0.00,TxWx,2013-11-09 19:31:00,
2013-11-09 14:36:00,35.0,25.0,29.82,SSW,202,1.0,1.0,69,0.00,,,0.00,TxWx,2013-11-09 19:36:00,
2013-11-09 14:41:00,35.0,25.0,29.81,SSW,202,3.0,3.0,69,0.00,,,0.00,TxWx,2013-11-09 19:41:00,
2013-11-09 14:46:00,35.0,25.0,29.81,SE,135,2.0,2.0,69,0.00,,,0.00,TxWx,2013-11-09 19:46:00,
2013-11-09 14:51:00,35.0,25.0,29.81,SE,135,4.0,5.0,69,0.00,,,0.00,TxWx,2013-11-09 19:51:00,
2013-11-09 14:56:00,35.0,25.0,29.81,South,180,1.0,3.0,70,0.00,,,0.00,TxWx,2013-11-09 19:56:00,
2013-11-09 15:01:00,34.0,24.0,29.81,South,180,1.0,1.0,70,0.00,,,0.00,TxWx,2013-11-09 20:01:00,
2013-11-09 15:06:00,35.0,25.0,29.81,South,180,1.0,1.0,71,0.00,,,0.00,TxWx,2013-11-09 20:06:00,
2013-11-09 15:11:00,34.0,24.0,29.81,SE,135,2.0,2.0,71,0.00,,,0.00,TxWx,2013-11-09 20:11:00,
2013-11-09 15:16:00,34.0,25.0,29.81,SSE,157,2.0,3.0,71,0.00,,,0.00,TxWx,2013-11-09 20:16:00,
2013-11-09 15:21:00,34.0,25.0,29.82,SSE,157,1.0,1.0,71,0.00,,,0.00,TxWx,2013-11-09 20:21:00,
2013-11-09 15:26:00,34.0,25.0,29.82,SSW,202,3.0,3.0,72,0.00,,,0.00,TxWx,2013-11-09 20:26:00,
2013-11-09 15:31:00,34.0,25.0,29.82,SE,135,1.0,1.0,72,0.00,,,0.00,TxWx,2013-11-09 20:31:00,
2013-11-09 15:36:00,34.0,25.0,29.81,ESE,112,1.0,1.0,73,0.00,,,0.00,TxWx,2013-11-09 20:36:00,
2013-11-09 15:41:00,34.0,25.0,29.81,SSE,157,2.0,3.0,73,0.00,,,0.00,TxWx,2013-11-09 20:41:00,
2013-11-09 15:46:00,34.0,25.0,29.81,SSE,157,1.0,2.0,74,0.00,,,0.00,TxWx,2013-11-09 20:46:00,
2013-11-09 15:51:00,34.0,25.0,29.81,SE,135,2.0,3.0,74,0.00,,,0.00,TxWx,2013-11-09 20:51:00,
2013-11-09 15:56:00,34.0,26.0,29.81,SE,135,2.0,3.0,74,0.00,,,0.00,TxWx,2013-11-09 20:56:00,
2013-11-09 16:01:00,34.0,26.0,29.81,SSE,157,1.0,2.0,75,0.00,,,0.00,TxWx,2013-11-09 21:01:00,
2013-11-09 16:07:00,34.0,26.0,29.81,SE,135,1.0,2.0,75,0.00,,,0.00,TxWx,2013-11-09 21:07:00,
2013-11-09 16:12:00,34.0,26.0,29.81,ESE,112,2.0,3.0,76,0.00,,,0.00,TxWx,2013-11-09 21:12:00,
2013-11-09 16:17:00,34.0,26.0,29.81,SSE,157,1.0,1.0,76,0.00,,,0.00,TxWx,2013-11-09 21:17:00,
2013-11-09 16:22:00,34.0,26.0,29.81,ESE,112,4.0,5.0,76,0.00,,,0.00,TxWx,2013-11-09 21:22:00,
2013-11-09 16:27:00,34.0,26.0,29.81,SE,135,3.0,3.0,76,0.00,,,0.00,TxWx,2013-11-09 21:27:00,
2013-11-09 16:31:00,34.0,26.0,29.80,SSE,157,1.0,3.0,77,0.00,,,0.00,TxWx,2013-11-09 21:31:00,
2013-11-09 16:36:00,34.0,26.0,29.80,South,180,1.0,1.0,77,0.00,,,0.00,TxWx,2013-11-09 21:36:00,
2013-11-09 16:41:00,34.0,27.0,29.80,SSW,202,1.0,1.0,77,0.00,,,0.00,TxWx,2013-11-09 21:41:00,
2013-11-09 16:46:00,33.0,26.0,29.80,SE,135,3.0,3.0,78,0.00,,,0.00,TxWx,2013-11-09 21:46:00,
2013-11-09 16:51:00,33.0,26.0,29.80,SSE,157,1.0,1.0,78,0.00,,,0.00,TxWx,2013-11-09 21:51:00,
2013-11-09 16:56:00,33.0,26.0,29.79,ESE,112,4.0,5.0,78,0.00,,,0.00,TxWx,2013-11-09 21:56:00,
2013-11-09 17:02:00,33.0,26.0,29.80,South,180,1.0,1.0,78,0.00,,,0.00,TxWx,2013-11-09 22:02:00,
2013-11-09 17:07:00,33.0,26.0,29.80,ESE,112,2.0,2.0,78,0.00,,,0.00,TxWx,2013-11-09 22:07:00,
2013-11-09 17:12:00,33.0,26.0,29.79,NE,45,3.0,3.0,79,0.00,,,0.00,TxWx,2013-11-09 22:12:00,
2013-11-09 17:17:00,33.0,26.0,29.79,SE,135,4.0,5.0,79,0.00,,,0.00,TxWx,2013-11-09 22:17:00,
2013-11-09 17:22:00,33.0,26.0,29.79,East,90,3.0,3.0,79,0.00,,,0.00,TxWx,2013-11-09 22:22:00,
2013-11-09 17:27:00,33.0,26.0,29.79,ENE,67,5.0,5.0,79,0.00,,,0.00,TxWx,2013-11-09 22:27:00,
2013-11-09 17:32:00,33.0,26.0,29.79,NE,45,1.0,1.0,79,0.00,,,0.00,TxWx,2013-11-09 22:32:00,
2013-11-09 17:37:00,33.0,26.0,29.79,ESE,112,3.0,4.0,79,0.00,,,0.00,TxWx,2013-11-09 22:37:00,
2013-11-09 17:42:00,33.0,26.0,29.79,ESE,112,5.0,5.0,79,0.00,,,0.00,TxWx,2013-11-09 22:42:00,
2013-11-09 17:47:00,32.0,25.0,29.79,SE,135,3.0,4.0,79,0.00,,,0.00,TxWx,2013-11-09 22:47:00,
2013-11-09 17:52:00,32.0,25.0,29.79,ESE,112,5.0,6.0,80,0.00,,,0.00,TxWx,2013-11-09 22:52:00,
2013-11-09 17:57:00,32.0,26.0,29.78,ESE,112,3.0,3.0,80,0.00,,,0.00,TxWx,2013-11-09 22:57:00,
2013-11-09 18:00:00,31.0,31.0,29.57,East,90,1.0,1.0,100,0.00,,,0.00,TxWx,2013-11-09 23:00:00,
2013-11-09 18:01:00,31.0,31.0,29.57,SE,135,1.0,1.0,100,0.00,,,0.00,TxWx,2013-11-09 23:01:00,
2013-11-09 18:02:00,32.0,26.0,29.78,SSE,157,3.0,3.0,80,0.00,,,0.00,TxWx,2013-11-09 23:02:00,
2013-11-09 18:04:00,31.0,31.0,29.57,South,180,0.0,0.0,100,0.00,,,0.00,TxWx,2013-11-09 23:04:00,
2013-11-09 18:06:00,31.0,31.0,29.57,SSE,157,0.0,0.0,100,0.00,,,0.00,TxWx,2013-11-09 23:06:00,
2013-11-09 18:07:00,32.0,26.0,29.78,ESE,112,3.0,5.0,80,0.00,,,0.00,TxWx,2013-11-09 23:07:00,
2013-11-09 18:08:00,31.0,31.0,29.57,ESE,112,1.0,1.0,100,0.00,,,0.00,TxWx,2013-11-09 23:08:00,
2013-11-09 18:11:00,31.0,31.0,29.57,SE,135,1.0,1.0,100,0.00,,,0.00,TxWx,2013-11-09 23:11:00,
2013-11-09 18:12:00,32.0,26.0,29.79,ESE,112,2.0,3.0,81,0.00,,,0.00,TxWx,2013-11-09 23:12:00,
2013-11-09 18:13:00,31.0,31.0,29.57,SE,135,1.0,1.0,100,0.00,,,0.00,TxWx,2013-11-09 23:13:00,
2013-11-09 18:14:00,31.0,31.0,29.57,East,90,1.0,1.0,100,0.00,,,0.00,TxWx,2013-11-09 23:14:00,
2013-11-09 18:15:00,31.0,31.0,29.57,SE,135,0.0,0.0,100,0.00,,,0.00,TxWx,2013-11-09 23:15:00,
2013-11-09 18:16:00,31.0,31.0,29.57,South,180,0.0,0.0,100,0.00,,,0.00,TxWx,2013-11-09 23:16:00,
2013-11-09 18:17:00,32.0,26.0,29.79,SSE,157,2.0,3.0,81,0.00,,,0.00,TxWx,2013-11-09 23:17:00,
2013-11-09 18:18:00,31.0,31.0,29.57,South,180,0.0,0.0,100,0.00,,,0.00,TxWx,2013-11-09 23:18:00,
2013-11-09 18:20:00,31.0,31.0,29.57,South,180,1.0,1.0,100,0.00,,,0.00,TxWx,2013-11-09 23:20:00,
2013-11-09 18:21:00,31.0,31.0,29.57,SE,135,1.0,1.0,100,0.00,,,0.00,TxWx,2013-11-09 23:21:00,
2013-11-09 18:22:00,32.0,26.0,29.79,SSE,157,3.0,3.0,81,0.00,,,0.00,TxWx,2013-11-09 23:22:00,
2013-11-09 18:27:00,32.0,26.0,29.79,SE,135,1.0,2.0,81,0.00,,,0.00,TxWx,2013-11-09 23:27:00,
2013-11-09 18:32:00,32.0,26.0,29.78,East,90,3.0,3.0,82,0.00,,,0.00,TxWx,2013-11-09 23:32:00,
2013-11-09 18:37:00,32.0,26.0,29.79,SE,135,3.0,4.0,82,0.00,,,0.00,TxWx,2013-11-09 23:37:00,
2013-11-09 18:42:00,32.0,26.0,29.79,SE,135,4.0,6.0,82,0.00,,,0.00,TxWx,2013-11-09 23:42:00,
2013-11-09 18:47:00,32.0,26.0,29.79,ESE,112,4.0,6.0,83,0.00,,,0.00,TxWx,2013-11-09 23:47:00,
2013-11-09 18:52:00,32.0,26.0,29.79,ESE,112,3.0,6.0,83,0.00,,,0.00,TxWx,2013-11-09 23:52:00,
2013-11-09 18:57:00,32.0,27.0,29.78,ESE,112,3.0,3.0,84,0.00,,,0.00,TxWx,2013-11-09 23:57:00,
2013-11-09 19:02:00,32.0,27.0,29.79,SSE,157,3.0,3.0,84,0.00,,,0.00,TxWx,2013-11-10 00:02:00,
2013-11-09 19:07:00,32.0,27.0,29.79,East,90,3.0,3.0,84,0.00,,,0.00,TxWx,2013-11-10 00:07:00,
2013-11-09 19:08:00,31.0,31.0,29.56,SE,135,0.0,0.0,100,0.00,,,0.00,TxWx,2013-11-10 00:08:00,
2013-11-09 19:10:00,31.0,31.0,29.56,SSW,202,0.0,0.0,100,0.00,,,0.00,TxWx,2013-11-10 00:10:00,
2013-11-09 19:11:00,31.0,31.0,29.56,SSW,202,0.0,0.0,100,0.00,,,0.00,TxWx,2013-11-10 00:11:00,
2013-11-09 19:12:00,32.0,27.0,29.79,East,90,2.0,2.0,84,0.00,,,0.00,TxWx,2013-11-10 00:12:00,
2013-11-09 19:13:00,31.0,31.0,29.56,South,180,0.0,1.0,100,0.00,,,0.00,TxWx,2013-11-10 00:13:00,
2013-11-09 19:14:00,31.0,31.0,29.56,SSE,157,0.0,0.0,100,0.00,,,0.00,TxWx,2013-11-10 00:14:00,
2013-11-09 19:15:00,31.0,31.0,29.56,SE,135,0.0,0.0,100,0.00,,,0.00,TxWx,2013-11-10 00:15:00,
2013-11-09 19:17:00,32.0,27.0,29.79,SSE,157,3.0,3.0,84,0.00,,,0.00,TxWx,2013-11-10 00:17:00,
2013-11-09 19:20:00,31.0,31.0,29.56,SSW,202,0.0,0.0,100,0.00,,,0.00,TxWx,2013-11-10 00:20:00,
2013-11-09 19:21:00,31.0,31.0,29.56,SSW,202,0.0,0.0,100,0.00,,,0.00,TxWx,2013-11-10 00:21:00,
2013-11-09 19:22:00,32.0,27.0,29.79,SSW,202,1.0,2.0,85,0.00,,,0.00,TxWx,2013-11-10 00:22:00,
2013-11-09 19:24:00,31.0,31.0,29.55,South,180,0.0,0.0,100,0.00,,,0.00,TxWx,2013-11-10 00:24:00,
2013-11-09 19:25:00,31.0,31.0,29.55,SSE,157,0.0,0.0,100,0.00,,,0.00,TxWx,2013-11-10 00:25:00,
2013-11-09 19:26:00,31.0,31.0,29.55,SSE,157,1.0,1.0,100,0.00,,,0.00,TxWx,2013-11-10 00:26:00,
2013-11-09 19:27:00,32.0,27.0,29.79,ESE,112,2.0,3.0,85,0.00,,,0.00,TxWx,2013-11-10 00:27:00,
2013-11-09 19:28:00,31.0,31.0,29.55,South,180,0.0,0.0,100,0.00,,,0.00,TxWx,2013-11-10 00:28:00,
2013-11-09 19:29:00,31.0,31.0,29.55,SSE,157,0.0,0.0,100,0.00,,,0.00,TxWx,2013-11-10 00:29:00,
2013-11-09 19:30:00,31.0,31.0,29.55,South,180,0.0,0.0,100,0.00,,,0.00,TxWx,2013-11-10 00:30:00,
2013-11-09 19:32:00,32.0,27.0,29.79,SE,135,2.0,3.0,85,0.00,,,0.00,TxWx,2013-11-10 00:32:00,
2013-11-09 19:37:00,32.0,27.0,29.79,SSE,157,0.0,1.0,86,0.00,,,0.00,TxWx,2013-11-10 00:37:00,
2013-11-09 19:42:00,32.0,27.0,29.79,ESE,112,4.0,5.0,86,0.00,,,0.00,TxWx,2013-11-10 00:42:00,
2013-11-09 19:43:00,31.0,31.0,29.55,South,180,0.0,1.0,100,0.00,,,0.00,TxWx,2013-11-10 00:43:00,
2013-11-09 19:46:00,31.0,31.0,29.55,South,180,1.0,1.0,100,0.00,,,0.00,TxWx,2013-11-10 00:46:00,
2013-11-09 19:47:00,32.0,27.0,29.78,ESE,112,3.0,4.0,86,0.00,,,0.00,TxWx,2013-11-10 00:47:00,
2013-11-09 19:48:00,31.0,31.0,29.55,SE,135,1.0,1.0,100,0.00,,,0.00,TxWx,2013-11-10 00:48:00,
2013-11-09 19:51:00,31.0,31.0,29.55,South,180,0.0,0.0,100,0.00,,,0.00,TxWx,2013-11-10 00:51:00,
2013-11-09 19:52:00,32.0,27.0,29.78,SSE,157,3.0,3.0,87,0.00,,,0.00,TxWx,2013-11-10 00:52:00,
2013-11-09 19:53:00,31.0,31.0,29.55,SSE,157,0.0,0.0,100,0.00,,,0.00,TxWx,2013-11-10 00:53:00,
2013-11-09 19:57:00,32.0,28.0,29.78,SE,135,2.0,3.0,87,0.00,,,0.00,TxWx,2013-11-10 00:57:00,
2013-11-09 19:58:00,31.0,31.0,29.55,SSW,202,1.0,1.0,100,0.00,,,0.00,TxWx,2013-11-10 00:58:00,
2013-11-09 19:59:00,31.0,31.0,29.55,South,180,1.0,1.0,100,0.00,,,0.00,TxWx,2013-11-10 00:59:00,
2013-11-09 20:00:00,31.0,31.0,29.55,SSE,157,1.0,1.0,100,0.00,,,0.00,TxWx,2013-11-10 01:00:00,
2013-11-09 20:01:00,31.0,31.0,29.55,SSW,202,0.0,1.0,100,0.00,,,0.00,TxWx,2013-11-10 01:01:00,
2013-11-09 20:02:00,31.0,27.0,29.78,SE,135,3.0,4.0,88,0.00,,,0.00,TxWx,2013-11-10 01:02:00,
2013-11-09 20:03:00,31.0,31.0,29.55,SSE,157,0.0,0.0,100,0.00,,,0.00,TxWx,2013-11-10 01:03:00,
2013-11-09 20:06:00,31.0,31.0,29.55,SW,225,0.0,0.0,100,0.00,,,0.00,TxWx,2013-11-10 01:06:00,
2013-11-09 20:07:00,31.0,27.0,29.78,SE,135,2.0,3.0,89,0.00,,,0.00,TxWx,2013-11-10 01:07:00,
2013-11-09 20:12:00,31.0,27.0,29.78,ESE,112,2.0,3.0,89,0.00,,,0.00,TxWx,2013-11-10 01:12:00,
2013-11-09 20:17:00,31.0,31.0,29.55,South,180,0.0,1.0,100,0.00,,,0.00,TxWx,2013-11-10 01:17:00,
2013-11-09 20:18:00,31.0,27.0,29.78,SE,135,2.0,3.0,90,0.00,,,0.00,TxWx,2013-11-10 01:18:00,
2013-11-09 20:23:00,31.0,28.0,29.78,ESE,112,5.0,6.0,91,0.00,,,0.00,TxWx,2013-11-10 01:23:00,
2013-11-09 20:28:00,30.0,27.0,29.78,South,180,2.0,3.0,92,0.00,,,0.00,TxWx,2013-11-10 01:28:00,
2013-11-09 20:33:00,30.0,27.0,29.77,ENE,67,2.0,2.0,92,0.00,,,0.00,TxWx,2013-11-10 01:33:00,
2013-11-09 20:38:00,30.0,27.0,29.77,South,180,3.0,3.0,93,0.00,,,0.00,TxWx,2013-11-10 01:38:00,
2013-11-09 20:43:00,30.0,27.0,29.77,SE,135,3.0,3.0,94,0.00,,,0.00,TxWx,2013-11-10 01:43:00,
2013-11-09 20:48:00,30.0,27.0,29.76,South,180,1.0,2.0,94,0.00,,,0.00,TxWx,2013-11-10 01:48:00,
2013-11-09 20:53:00,30.0,27.0,29.76,SE,135,1.0,1.0,94,0.00,,,0.00,TxWx,2013-11-10 01:53:00,
2013-11-09 20:58:00,30.0,28.0,29.76,NE,45,3.0,3.0,95,0.00,,,0.00,TxWx,2013-11-10 01:58:00,
2013-11-09 21:04:00,30.0,28.0,29.75,SSW,202,1.0,2.0,95,0.00,,,0.00,TxWx,2013-11-10 02:04:00,
2013-11-09 21:09:00,30.0,28.0,29.75,SE,135,1.0,1.0,95,0.00,,,0.00,TxWx,2013-11-10 02:09:00,
2013-11-09 21:14:00,30.0,28.0,29.75,ENE,67,3.0,4.0,96,0.00,,,0.00,TxWx,2013-11-10 02:14:00,
2013-11-09 21:19:00,30.0,28.0,29.75,NE,45,3.0,3.0,96,0.00,,,0.00,TxWx,2013-11-10 02:19:00,
2013-11-09 21:24:00,30.0,28.0,29.75,East,90,3.0,3.0,96,0.00,,,0.00,TxWx,2013-11-10 02:24:00,
2013-11-09 21:29:00,30.0,28.0,29.74,North,0,1.0,1.0,96,0.00,,,0.00,TxWx,2013-11-10 02:29:00,
2013-11-09 21:34:00,30.0,28.0,29.74,SE,135,2.0,3.0,96,0.00,,,0.00,TxWx,2013-11-10 02:34:00,
2013-11-09 21:39:00,30.0,28.0,29.74,NNE,22,2.0,2.0,97,0.00,,,0.00,TxWx,2013-11-10 02:39:00,
2013-11-09 21:44:00,30.0,28.0,29.74,East,90,1.0,3.0,97,0.00,,,0.00,TxWx,2013-11-10 02:44:00,
2013-11-09 21:49:00,30.0,28.0,29.74,SSW,202,1.0,1.0,97,0.00,,,0.00,TxWx,2013-11-10 02:49:00,
2013-11-09 21:54:00,30.0,28.0,29.73,SE,135,1.0,2.0,97,0.00,,,0.00,TxWx,2013-11-10 02:54:00,
2013-11-09 21:59:00,30.0,28.0,29.73,SSE,157,2.0,3.0,97,0.00,,,0.00,TxWx,2013-11-10 02:59:00,
2013-11-09 22:04:00,30.0,28.0,29.73,ENE,67,3.0,3.0,98,0.00,,,0.00,TxWx,2013-11-10 03:04:00,
2013-11-09 22:09:00,30.0,28.0,29.73,ESE,112,2.0,2.0,98,0.00,,,0.00,TxWx,2013-11-10 03:09:00,
2013-11-09 22:14:00,30.0,28.0,29.72,SSW,202,2.0,3.0,98,0.00,,,0.00,TxWx,2013-11-10 03:14:00,
2013-11-09 22:19:00,30.0,28.0,29.72,SE,135,4.0,5.0,98,0.00,,,0.00,TxWx,2013-11-10 03:19:00,
2013-11-09 22:24:00,30.0,29.0,29.72,SE,135,3.0,4.0,98,0.00,,,0.00,TxWx,2013-11-10 03:24:00,
2013-11-09 22:29:00,30.0,29.0,29.71,SSE,157,0.0,1.0,98,0.00,,,0.00,TxWx,2013-11-10 03:29:00,
2013-11-09 22:34:00,30.0,29.0,29.71,SSE,157,1.0,1.0,98,0.00,,,0.00,TxWx,2013-11-10 03:34:00,
2013-11-09 22:39:00,30.0,29.0,29.71,ESE,112,3.0,3.0,98,0.00,,,0.00,TxWx,2013-11-10 03:39:00,
2013-11-09 22:44:00,30.0,29.0,29.70,ESE,112,2.0,2.0,99,0.00,,,0.00,TxWx,2013-11-10 03:44:00,
2013-11-09 22:49:00,30.0,29.0,29.70,ENE,67,3.0,3.0,99,0.00,,,0.00,TxWx,2013-11-10 03:49:00,
2013-11-09 22:54:00,30.0,29.0,29.70,SE,135,4.0,5.0,99,0.00,,,0.00,TxWx,2013-11-10 03:54:00,
2013-11-09 23:00:00,30.0,29.0,29.70,SSE,157,1.0,2.0,99,0.00,,,0.00,TxWx,2013-11-10 04:00:00,
2013-11-09 23:05:00,30.0,29.0,29.69,ESE,112,1.0,2.0,99,0.00,,,0.00,TxWx,2013-11-10 04:05:00,
2013-11-09 23:10:00,30.0,29.0,29.69,SE,135,2.0,2.0,99,0.00,,,0.00,TxWx,2013-11-10 04:10:00,
2013-11-09 23:15:00,30.0,29.0,29.69,ESE,112,3.0,3.0,99,0.00,,,0.00,TxWx,2013-11-10 04:15:00,
2013-11-09 23:20:00,30.0,29.0,29.68,ESE,112,2.0,3.0,99,0.00,,,0.00,TxWx,2013-11-10 04:20:00,
2013-11-09 23:25:00,30.0,29.0,29.68,ESE,112,2.0,2.0,99,0.00,,,0.00,TxWx,2013-11-10 04:25:00,
2013-11-09 23:30:00,30.0,29.0,29.68,ESE,112,2.0,2.0,99,0.00,,,0.00,TxWx,2013-11-10 04:30:00,
2013-11-09 23:35:00,30.0,29.0,29.68,ESE,112,3.0,3.0,99,0.00,,,0.00,TxWx,2013-11-10 04:35:00,
2013-11-09 23:40:00,30.0,30.0,29.68,ESE,112,1.0,1.0,100,0.00,,,0.00,TxWx,2013-11-10 04:40:00,
2013-11-09 23:45:00,30.0,30.0,29.67,South,180,1.0,2.0,100,0.00,,,0.00,TxWx,2013-11-10 04:45:00,
2013-11-09 23:50:00,30.0,30.0,29.67,SSE,157,1.0,1.0,100,0.00,,,0.00,TxWx,2013-11-10 04:50:00,
2013-11-09 23:55:00,30.0,30.0,29.67,ESE,112,3.0,4.0,100,0.00,,,0.00,TxWx,2013-11-10 04:55:00,